When you browse on this site, cookies collect data to enhance your experience and personalize the content and advertising you see.
Visit our Privacy Policy to learn more. By continuing to use the site, you agree to this use of cookies and data.
  • Em Portugal
  • Lista de países
  • Para 7 dias
  • Temperatura da água
  • Mapa do tempo
  • Widgets de tempo
  • user-avatar
    Iniciar Sessão

    Previsão horária em Altay

    Hoje, 3 Junho, Quarta-feira

    Tempo Temperatura Precipitação Vento Pressão Humidade
    00:00 +13°C° 0 mm 4 m/s 721 mmHg 84%
    01:00 +12°C° 0.2 mm 3 m/s 721 mmHg 85%
    02:00 +12°C° 0.2 mm 3 m/s 721 mmHg 85%
    03:00 +12°C° 0.2 mm 3 m/s 721 mmHg 86%
    04:00 +13°C° 0.1 mm 4 m/s 721 mmHg 84%
    05:00 +13°C° 0.1 mm 5 m/s 721 mmHg 82%
    06:00 +14°C° 0 mm 6 m/s 721 mmHg 82%
    07:00 +15°C° 0.4 mm 6 m/s 721 mmHg 77%
    08:00 +16°C° 0.4 mm 6 m/s 721 mmHg 72%
    09:00 +17°C° 0.4 mm 6 m/s 721 mmHg 68%
    10:00 +17°C° 0.6 mm 7 m/s 722 mmHg 65%
    11:00 +17°C° 0.6 mm 7 m/s 722 mmHg 62%
    12:00 +17°C° 0.6 mm 7 m/s 722 mmHg 59%
    13:00 +17°C° 0.3 mm 7 m/s 723 mmHg 57%
    14:00 +17°C° 0.3 mm 6 m/s 723 mmHg 56%
    15:00 +17°C° 0.3 mm 6 m/s 724 mmHg 54%
    16:00 +16°C° 0.1 mm 5 m/s 724 mmHg 57%
    17:00 +15°C° 0.1 mm 4 m/s 724 mmHg 61%
    18:00 +16°C° 0.1 mm 3 m/s 724 mmHg 64%
    19:00 +13°C° 0 mm 3 m/s 725 mmHg 66%
    20:00 +13°C° 0 mm 2 m/s 725 mmHg 68%
    21:00 +12°C° 0 mm 1 m/s 726 mmHg 70%
    22:00 +11°C° 0 mm 1 m/s 726 mmHg 73%
    23:00 +10°C° 0 mm 1 m/s 726 mmHg 75%

    Amanhã, 4 Junho, Quinta-feira

    Tempo Temperatura Precipitação Vento Pressão Humidade
    00:00 +10°C° 0 mm 1 m/s 726 mmHg 78%
    01:00 +9°C° 0 mm 1 m/s 725 mmHg 79%
    02:00 +9°C° 0 mm 1 m/s 725 mmHg 81%
    03:00 +7°C° 0 mm 0 m/s 725 mmHg 82%
    04:00 +8°C° 0 mm 0 m/s 725 mmHg 80%
    05:00 +9°C° 0 mm 0 m/s 724 mmHg 77%
    06:00 +10°C° 0 mm 0 m/s 724 mmHg 75%
    07:00 +11°C° 0 mm 0 m/s 724 mmHg 73%
    08:00 +12°C° 0 mm 1 m/s 723 mmHg 70%
    09:00 +13°C° 0 mm 1 m/s 723 mmHg 68%
    10:00 +14°C° 0 mm 1 m/s 723 mmHg 63%
    11:00 +15°C° 0 mm 1 m/s 723 mmHg 59%
    12:00 +18°C° 0 mm 1 m/s 722 mmHg 54%
    13:00 +18°C° 0.1 mm 1 m/s 722 mmHg 53%
    14:00 +18°C° 0.1 mm 1 m/s 722 mmHg 52%
    15:00 +19°C° 0.1 mm 1 m/s 722 mmHg 52%
    16:00 +17°C° 0.9 mm 2 m/s 722 mmHg 57%
    17:00 +17°C° 0.9 mm 2 m/s 721 mmHg 63%
    18:00 +16°C° 0.9 mm 2 m/s 721 mmHg 69%
    19:00 +14°C° 0.1 mm 2 m/s 721 mmHg 73%
    20:00 +13°C° 0.1 mm 1 m/s 721 mmHg 78%
    21:00 +11°C° 0.1 mm 1 m/s 721 mmHg 83%
    22:00 +11°C° 0 mm 1 m/s 721 mmHg 84%
    23:00 +11°C° 0 mm 1 m/s 721 mmHg 85%

    Depois de amanhã, 5 Junho, Sexta-feira

    Tempo Temperatura Precipitação Vento Pressão Humidade
    00:00 +10°C° 0 mm 1 m/s 721 mmHg 86%
    01:00 +10°C° 0 mm 1 m/s 720 mmHg 87%
    02:00 +10°C° 0 mm 1 m/s 720 mmHg 88%
    03:00 +10°C° 0 mm 1 m/s 719 mmHg 89%
    04:00 +10°C° 0 mm 1 m/s 719 mmHg 86%
    05:00 +11°C° 0 mm 1 m/s 719 mmHg 84%
    06:00 +11°C° 0 mm 1 m/s 719 mmHg 82%
    07:00 +10°C° 1.4 mm 2 m/s 719 mmHg 85%
    08:00 +8°C° 1.4 mm 4 m/s 718 mmHg 88%
    09:00 +8°C° 1.4 mm 5 m/s 718 mmHg 91%
    10:00 +8°C° 1.8 mm 5 m/s 718 mmHg 90%
    11:00 +8°C° 1.8 mm 4 m/s 719 mmHg 89%
    12:00 +8°C° 1.8 mm 4 m/s 719 mmHg 88%
    13:00 +8°C° 0.2 mm 4 m/s 719 mmHg 86%
    14:00 +9°C° 0.2 mm 5 m/s 720 mmHg 85%
    15:00 +9°C° 0.2 mm 5 m/s 720 mmHg 83%
    16:00 +9°C° 0.6 mm 5 m/s 720 mmHg 85%
    17:00 +8°C° 0.6 mm 5 m/s 720 mmHg 87%
    18:00 +8°C° 0.6 mm 6 m/s 721 mmHg 89%
    19:00 +8°C° 0.8 mm 6 m/s 721 mmHg 89%
    20:00 +8°C° 0.8 mm 6 m/s 721 mmHg 89%
    21:00 +8°C° 0.8 mm 6 m/s 721 mmHg 89%
    22:00 +6°C° 1.5 mm 7 m/s 721 mmHg 90%
    23:00 +6°C° 1.5 mm 7 m/s 721 mmHg 91%

    6 Junho, Sábado

    Tempo Temperatura Precipitação Vento Pressão Humidade
    00:00 +6°C° 1.5 mm 8 m/s 721 mmHg 92%
    01:00 +6°C° 4.8 mm 8 m/s 721 mmHg 92%
    02:00 +6°C° 4.8 mm 9 m/s 722 mmHg 92%
    03:00 +5°C° 4.8 mm 9 m/s 722 mmHg 92%
    04:00 +6°C° 1.9 mm 8 m/s 722 mmHg 91%
    05:00 +6°C° 1.9 mm 7 m/s 723 mmHg 91%
    06:00 +7°C° 1.9 mm 6 m/s 723 mmHg 90%
    07:00 +8°C° 0.5 mm 6 m/s 724 mmHg 87%
    08:00 +8°C° 0.5 mm 6 m/s 724 mmHg 84%
    09:00 +9°C° 0.5 mm 6 m/s 725 mmHg 81%
    10:00 +10°C° 0.2 mm 7 m/s 725 mmHg 78%
    11:00 +11°C° 0.2 mm 7 m/s 726 mmHg 74%
    12:00 +12°C° 0.2 mm 8 m/s 726 mmHg 71%
    13:00 +11°C° 0.6 mm 8 m/s 726 mmHg 74%
    14:00 +10°C° 0.6 mm 8 m/s 726 mmHg 78%
    15:00 +9°C° 0.6 mm 7 m/s 727 mmHg 81%
    16:00 +9°C° 0.1 mm 7 m/s 727 mmHg 81%
    17:00 +9°C° 0.1 mm 7 m/s 727 mmHg 82%
    18:00 +10°C° 0.1 mm 6 m/s 727 mmHg 82%
    19:00 +9°C° 0.8 mm 6 m/s 727 mmHg 85%
    20:00 +9°C° 0.8 mm 6 m/s 727 mmHg 88%
    21:00 +8°C° 0.8 mm 7 m/s 727 mmHg 91%
    22:00 +8°C° 0.9 mm 6 m/s 727 mmHg 90%
    23:00 +8°C° 0.9 mm 6 m/s 728 mmHg 90%

    7 Junho, Domingo

    Tempo Temperatura Precipitação Vento Pressão Humidade
    00:00 +8°C° 0.9 mm 6 m/s 728 mmHg 89%
    01:00 +8°C° 0.2 mm 6 m/s 727 mmHg 90%
    02:00 +8°C° 0.2 mm 6 m/s 727 mmHg 90%
    03:00 +8°C° 0.2 mm 6 m/s 727 mmHg 91%
    04:00 +8°C° 0.3 mm 6 m/s 727 mmHg 90%
    05:00 +8°C° 0.3 mm 6 m/s 727 mmHg 90%
    06:00 +9°C° 0.3 mm 5 m/s 727 mmHg 90%
    07:00 +10°C° 0.4 mm 6 m/s 726 mmHg 86%
    08:00 +11°C° 0.4 mm 7 m/s 726 mmHg 82%
    09:00 +12°C° 0.4 mm 7 m/s 726 mmHg 78%
    10:00 +11°C° 1.6 mm 6 m/s 726 mmHg 81%
    11:00 +11°C° 1.6 mm 4 m/s 725 mmHg 85%
    12:00 +10°C° 1.6 mm 2 m/s 725 mmHg 88%
    13:00 +11°C° 0.2 mm 3 m/s 725 mmHg 83%
    14:00 +13°C° 0.2 mm 3 m/s 725 mmHg 78%
    15:00 +14°C° 0.2 mm 3 m/s 725 mmHg 73%
    16:00 +14°C° 1 mm 4 m/s 725 mmHg 76%
    17:00 +13°C° 1 mm 4 m/s 725 mmHg 79%
    18:00 +13°C° 1 mm 4 m/s 725 mmHg 82%
    19:00 +12°C° 0.6 mm 3 m/s 726 mmHg 83%
    20:00 +12°C° 0.6 mm 2 m/s 726 mmHg 84%
    21:00 +10°C° 0.6 mm 2 m/s 726 mmHg 84%
    22:00 +9°C° 0.4 mm 2 m/s 727 mmHg 86%
    23:00 +9°C° 0.4 mm 2 m/s 727 mmHg 88%

    8 Junho, Segunda-feira

    Tempo Temperatura Precipitação Vento Pressão Humidade
    00:00 +8°C° 0.4 mm 2 m/s 727 mmHg 90%
    01:00 +8°C° 0.1 mm 2 m/s 727 mmHg 90%
    02:00 +8°C° 0.1 mm 2 m/s 727 mmHg 90%
    03:00 +8°C° 0.1 mm 2 m/s 727 mmHg 90%
    04:00 +8°C° 0.1 mm 2 m/s 727 mmHg 88%
    05:00 +9°C° 0.1 mm 3 m/s 727 mmHg 87%
    06:00 +9°C° 0.1 mm 3 m/s 727 mmHg 85%
    07:00 +10°C° 0.3 mm 3 m/s 727 mmHg 78%
    08:00 +11°C° 0.3 mm 3 m/s 727 mmHg 71%
    09:00 +12°C° 0.3 mm 3 m/s 727 mmHg 64%
    10:00 +13°C° 0.3 mm 3 m/s 727 mmHg 62%
    11:00 +14°C° 0.3 mm 3 m/s 727 mmHg 60%
    12:00 +14°C° 0.3 mm 3 m/s 727 mmHg 57%
    13:00 +14°C° 0.7 mm 3 m/s 727 mmHg 57%
    14:00 +16°C° 0.7 mm 3 m/s 726 mmHg 57%
    15:00 +16°C° 0.7 mm 2 m/s 726 mmHg 57%
    16:00 +16°C° 0.3 mm 2 m/s 727 mmHg 60%
    17:00 +16°C° 0.3 mm 1 m/s 727 mmHg 63%
    18:00 +15°C° 0.3 mm 1 m/s 727 mmHg 65%
    19:00 +14°C° 0.1 mm 1 m/s 727 mmHg 68%
    20:00 +12°C° 0.1 mm 1 m/s 727 mmHg 71%
    21:00 +11°C° 0.1 mm 1 m/s 728 mmHg 73%
    22:00 +10°C° 0 mm 1 m/s 728 mmHg 76%
    23:00 +8°C° 0 mm 2 m/s 728 mmHg 79%
    Mostrar mais